Location: Zwardon
(49.5170°N, 18.9830°E)
Time: 21:42:06
(UTC+01:00)

ISS - Visible Passes

Search period start: 30 November 2022 00:00
Search period end: 10 December 2022 00:00
Orbit: 415 x 420 km, 51.6° (Epoch: 30 November)

Date Brightness Start Highest point End Pass type
(mag) Time Alt. Az. Time Alt. Az. Time Alt. Az.
30 Nov -3.7 17:03:56 10° WNW 17:07:16 61° N 17:09:13 22° E visible
30 Nov -1.2 18:40:46 10° WNW 18:42:09 22° W 18:42:09 22° W visible
01 Dec -3.8 17:52:45 10° WNW 17:56:05 76° SSW 17:56:13 75° S visible
02 Dec -3.9 17:04:43 10° WNW 17:08:05 83° NNE 17:10:23 19° ESE visible
02 Dec -1.2 18:41:45 10° W 18:43:20 21° WSW 18:43:20 21° WSW visible
03 Dec -3.7 16:16:42 10° WNW 16:20:03 69° NNE 16:23:24 10° E visible
03 Dec -2.6 17:53:35 10° W 17:56:44 39° SSW 17:57:38 31° S visible
04 Dec -3.2 17:05:30 10° WNW 17:08:48 56° SSW 17:12:05 10° SE visible
04 Dec -0.7 18:43:31 10° WSW 18:45:01 12° SW 18:45:06 12° SW visible
05 Dec -3.6 16:17:28 10° WNW 16:20:49 78° SSW 16:24:10 10° ESE visible
05 Dec -1.1 17:54:47 10° W 17:57:13 19° SW 17:59:38 10° S visible
06 Dec -1.6 17:06:28 10° W 17:09:23 27° SW 17:12:16 10° SSE visible
07 Dec -2.3 16:18:19 10° WNW 16:21:29 40° SSW 16:24:38 10° SE visible
08 Dec -0.5 17:08:10 10° WSW 17:09:45 13° SW 17:11:21 10° SSW visible
09 Dec -0.7 16:19:29 10° W 16:21:57 19° SW 16:24:26 10° S visible
